FW8535 Weather Reports


time (UTC)temp
C
wind
direction
speed
KPH
gust
KPH
rain 1hr
cm
rain 24hr
cm
rain mn
cm
humidity
%
barometer
mb
20260904102052 13 5 3.2 4.8 0.00 0.00 0.00 92 1008.5
20260904101604 13 5 0.0 4.8 0.00 0.00 0.00 91 1008.4
20260904101052 13 5 0.0 3.2 0.00 0.00 0.00 92 1008.5
20260904100553 13 5 0.0 3.2 0.00 0.00 0.00 91 1008.5
20260904100058 13 5 0.0 4.8 0.00 0.00 0.00 91 1008.6
20260904095550 13 5 1.6 4.8 0.00 0.00 0.00 90 1008.5
20260904095051 13 5 1.6 4.8 0.00 0.00 0.00 90 1008.3
20260904094552 13 5 1.6 4.8 0.00 0.00 0.00 91 1008.4
20260904094049 13 5 0.0 3.2 0.00 0.00 0.00 91 1008.3
20260904093549 13 5 0.0 1.6 0.00 0.00 0.00 91 1008.6
20260904093110 13 5 0.0 0.0 0.00 0.00 0.00 90 1008.4
20260904092046 13 5 0.0 3.2 0.00 0.00 0.00 90 1008.4
20260904091546 13 5 0.0 3.2 0.00 0.00 0.00 90 1008.3
20260904091043 13 5 0.0 3.2 0.00 0.00 0.00 89 1008.3
20260904090543 13 5 1.6 4.8 0.00 0.00 0.00 89 1008.1
20260904090047 13 5 1.6 4.8 0.00 0.00 0.00 89 1008.3
20260904090012 14 5 1.6 4.8 0.00 0.00 0.00 89 1008.3
20260904085545 14 5 1.6 4.8 0.00 0.00 0.00 88 1008.2
20260904085040 14 5 0.0 0.0 0.00 0.00 0.00 88 1008.2
20260904084541 14 5 0.0 0.0 0.00 0.00 0.00 88 1008.2
20260904084040 14 5 0.0 0.0 0.00 0.00 0.00 88 1008.3
20260904083539 14 5 0.0 0.0 0.00 0.00 0.00 88 1008.0
20260904083040 14 5 0.0 0.0 0.00 0.00 0.00 88 1008.1
20260904082039 14 5 0.0 0.0 0.00 0.00 0.00 87 1008.1
20260904081541 14 5 0.0 0.0 0.00 0.00 0.00 86 1008.0
20260904081040 14 5 0.0 0.0 0.00 0.00 0.00 86 1008.0
20260904080538 15 5 0.0 0.0 0.00 0.00 0.00 85 1008.0
20260904080040 15 5 0.0 3.2 0.00 0.00 0.00 84 1008.1
20260904075535 15 5 0.0 3.2 0.00 0.00 0.00 84 1008.0
20260904075034 15 5 0.0 4.8 0.00 0.00 0.00 83 1007.9
20260904074539 15 5 3.2 4.8 0.00 0.00 0.00 84 1008.1
20260904074036 15 5 1.6 4.8 0.00 0.00 0.00 83 1008.1
20260904073533 15 5 1.6 3.2 0.00 0.00 0.00 82 1008.0
20260904073032 16 5 0.0 3.2 0.00 0.00 0.00 82 1008.2
20260904072036 16 5 0.0 3.2 0.00 0.00 0.00 81 1008.1
20260904071536 16 5 0.0 3.2 0.00 0.00 0.00 81 1007.9
20260904071035 16 5 1.6 3.2 0.00 0.00 0.00 81 1008.0
20260904070536 16 5 0.0 3.2 0.00 0.00 0.00 80 1008.1
20260904070045 16 5 0.0 4.8 0.00 0.00 0.00 80 1007.9
20260904065537 16 5 0.0 3.2 0.00 0.00 0.00 79 1007.9
20260904065033 16 5 0.0 3.2 0.00 0.00 0.00 79 1007.8
20260904064543 16 5 0.0 3.2 0.00 0.00 0.00 78 1007.7
20260904064034 16 5 0.0 4.8 0.00 0.00 0.00 78 1007.6
20260904063531 16 5 1.6 4.8 0.00 0.00 0.00 77 1007.8
20260904063035 16 5 0.0 4.8 0.00 0.00 0.00 76 1007.7
20260904062027 16 5 0.0 3.2 0.00 0.00 0.00 75 1007.8
20260904061526 16 5 0.0 3.2 0.00 0.00 0.00 74 1007.8
20260904061026 16 5 0.0 3.2 0.00 0.00 0.00 73 1007.7
20260904060524 16 5 0.0 3.2 0.00 0.00 0.00 72 1007.6
20260904060024 16 5 0.0 4.8 0.00 0.00 0.00 71 1007.5
20260904055523 16 5 0.0 4.8 0.00 0.00 0.00 71 1007.5
20260904055024 16 5 0.0 3.2 0.00 0.00 0.00 70 1007.6
20260904054530 16 5 0.0 3.2 0.00 0.00 0.00 69 1007.7
20260904054023 16 5 0.0 4.8 0.00 0.00 0.00 69 1007.6
20260904053526 16 5 1.6 4.8 0.00 0.00 0.00 69 1007.5
20260904053022 16 5 1.6 6.4 0.00 0.00 0.00 67 1007.5
20260904052024 16 5 3.2 4.8 0.00 0.00 0.00 67 1007.5
20260904051524 16 5 1.6 4.8 0.00 0.00 0.00 66 1007.2
20260904051023 17 5 1.6 6.4 0.00 0.00 0.00 66 1007.2
20260904050523 16 5 3.2 4.8 0.00 0.00 0.00 67 1007.2
20260904050023 17 5 0.0 4.8 0.00 0.00 0.00 64 1007.3
20260904045525 17 5 0.0 4.8 0.00 0.00 0.00 64 1007.2
20260904045023 17 5 3.2 4.8 0.00 0.00 0.00 63 1007.3
20260904044531 17 5 3.2 4.8 0.00 0.00 0.00 62 1007.2
20260904044023 18 5 3.2 4.8 0.00 0.00 0.00 62 1007.0
20260904043524 18 5 3.2 4.8 0.00 0.00 0.00 62 1007.2
20260904043022 18 5 0.0 4.8 0.00 0.00 0.00 60 1007.3
20260904042019 19 5 3.2 6.4 0.00 0.00 0.00 59 1007.0
20260904041517 18 5 3.2 4.8 0.00 0.00 0.00 60 1007.0
20260904041017 18 360 0.0 3.2 0.00 0.00 0.00 60 1007.0
20260904040521 18 360 0.0 4.8 0.00 0.00 0.00 60 1007.0
20260904040016 18 360 0.0 4.8 0.00 0.00 0.00 60 1006.6
20260904035517 18 360 0.0 4.8 0.00 0.00 0.00 61 1006.5
20260904035016 18 360 1.6 6.4 0.00 0.00 0.00 62 1006.5
20260904034538 18 360 4.8 6.4 0.00 0.00 0.00 64 1006.4
20260904034019 18 360 1.6 4.8 0.00 0.00 0.00 64 1006.5
20260904033516 18 360 1.6 4.8 0.00 0.00 0.00 65 1006.6
20260904033015 18 360 3.2 4.8 0.00 0.00 0.00 63 1006.5
20260904032016 19 360 4.8 8.0 0.00 0.00 0.00 60 1006.7
20260904031517 19 334 3.2 4.8 0.00 0.00 0.00 60 1006.9
20260904031016 19 334 0.0 3.2 0.00 0.00 0.00 55 1006.9
20260904030516 19 334 0.0 3.2 0.00 0.00 0.00 55 1006.7
20260904030016 19 334 1.6 3.2 0.00 0.00 0.00 54 1006.7
20260904025516 20 334 0.0 3.2 0.00 0.00 0.00 53 1006.7
20260904025016 20 334 0.0 3.2 0.00 0.00 0.00 51 1006.8
20260904024516 20 334 0.0 3.2 0.00 0.00 0.00 50 1006.7
20260904024014 20 334 1.6 4.8 0.00 0.00 0.00 49 1006.8
20260904023513 21 334 0.0 4.8 0.00 0.00 0.00 49 1006.5
20260904023013 21 333 0.0 1.6 0.00 0.00 0.00 49 1006.4
20260904022017 21 333 0.0 0.0 0.00 0.00 0.00 47 1006.4
20260904021512 22 333 0.0 3.2 0.00 0.00 0.00 46 1006.4
20260904021012 22 336 0.0 8.0 0.00 0.00 0.00 45 1006.3
20260904020512 22 336 1.6 8.0 0.00 0.00 0.00 44 1006.1
20260904020012 23 287 0.0 4.8 0.00 0.00 0.00 44 1006.1
20260904015515 23 283 0.0 4.8 0.00 0.00 0.00 44 1006.0
20260904015012 23 265 0.0 0.0 0.00 0.00 0.00 43 1006.1
20260904014511 24 265 0.0 0.0 0.00 0.00 0.00 42 1006.0
20260904014012 24 265 0.0 0.0 0.00 0.00 0.00 42 1005.9
20260904013510 24 265 0.0 1.6 0.00 0.00 0.00 41 1005.8
20260904013011 25 265 0.0 4.8 0.00 0.00 0.00 41 1005.8
20260904012012 26 265 3.2 6.4 0.00 0.00 0.00 38 1005.6
20260904011537 26 263 1.6 6.4 0.00 0.00 0.00 37 1005.8
20260904011012 27 263 1.6 4.8 0.00 0.00 0.00 36 1005.7
20260904010512 27 259 1.6 6.4 0.00 0.00 0.00 35 1005.6
20260904010012 28 259 1.6 6.4 0.00 0.00 0.00 32 1005.6
20260904005517 28 247 1.6 9.7 0.00 0.00 0.00 28 1005.6
20260904005011 28 246 3.2 11.3 0.00 0.00 0.00 29 1005.2
20260904004511 28 246 4.8 17.7 0.00 0.00 0.00 25 1005.4
20260904004014 28 242 9.7 22.5 0.00 0.00 0.00 25 1005.3
20260904003521 28 231 14.5 25.7 0.00 0.00 0.00 24 1005.3
20260904003013 28 234 12.9 25.7 0.00 0.00 0.00 24 1005.2
20260904002013 29 227 16.1 24.1 0.00 0.00 0.00 25 1005.2
20260904001512 29 229 12.9 27.4 0.00 0.00 0.00 25 1005.3
20260904001012 29 257 17.7 27.4 0.00 0.00 0.00 24 1005.2
20260904000514 30 239 11.3 25.7 0.00 0.00 0.00 23 1005.1
20260904000020 30 236 14.5 25.7 0.00 0.00 0.00 22 1004.9
20260903235514 30 241 14.5 27.4 0.00 0.00 0.00 22 1004.9
20260903235011 30 246 16.1 27.4 0.00 0.00 0.00 21 1004.8
20260903234514 30 251 14.5 24.1 0.00 0.00 0.00 22 1004.7
20260903234010 30 265 11.3 22.5 0.00 0.00 0.00 22 1004.6
20260903233509 30 300 9.7 22.5 0.00 0.00 0.00 23 1004.5
20260903233018 31 223 8.0 16.1 0.00 0.00 0.00 23 1004.5
20260903232009 31 273 12.9 24.1 0.00 0.00 0.00 23 1004.5
20260903231508 31 249 11.3 24.1 0.00 0.00 0.00 22 1004.5
20260903231008 31 241 11.3 24.1 0.00 0.00 0.00 22 1004.4
20260903230510 31 232 12.9 19.3 0.00 0.00 0.00 24 1004.2
20260903230012 31 233 9.7 16.1 0.00 0.00 0.00 25 1004.1
20260903225508 31 279 8.0 16.1 0.00 0.00 0.00 27 1004.1
20260903225006 31 348 3.2 22.5 0.00 0.00 0.00 27 1004.0
20260903224505 31 275 9.7 19.3 0.00 0.00 0.00 27 1003.9
20260903224004 31 198 11.3 17.7 0.00 0.00 0.00 28 1003.9
20260903223507 30 213 6.4 11.3 0.00 0.00 0.00 28 1003.9
20260903223003 29 232 4.8 11.3 0.00 0.00 0.00 30 1004.0
20260903222005 29 315 1.6 4.8 0.00 0.00 0.00 30 1004.0
20260903221505 29 15 0.0 4.8 0.00 0.00 0.00 30 1003.9
20260903221006 29 12 0.0 4.8 0.00 0.00 0.00 31 1003.8
20260903220505 30 9 1.6 4.8 0.00 0.00 0.00 30 1003.8
20260903220008 30 9 1.6 4.8 0.00 0.00 0.00 30 1003.8
20260903215505 30 51 1.6 4.8 0.00 0.00 0.00 30 1003.8
20260903215006 30 51 0.0 8.0 0.00 0.00 0.00 29 1003.8
20260903214507 30 47 3.2 11.3 0.00 0.00 0.00 29 1003.7
20260903214005 30 293 3.2 11.3 0.00 0.00 0.00 30 1003.8
20260903213503 30 29 4.8 8.0 0.00 0.00 0.00 31 1003.8
20260903213006 30 259 3.2 17.7 0.00 0.00 0.00 31 1003.7
20260903212004 30 290 4.8 14.5 0.00 0.00 0.00 31 1003.9
20260903211507 30 355 6.4 14.5 0.00 0.00 0.00 32 1003.8
20260903211003 29 306 4.8 12.9 0.00 0.00 0.00 32 1003.6
20260903210503 29 305 4.8 12.9 0.00 0.00 0.00 31 1003.7
20260903210003 30 278 4.8 17.7 0.00 0.00 0.00 30 1003.7
20260903205502 30 323 6.4 17.7 0.00 0.00 0.00 30 1003.6
20260903205003 30 19 6.4 12.9 0.00 0.00 0.00 30 1003.7
20260903204502 30 281 4.8 14.5 0.00 0.00 0.00 29 1003.5
20260903204004 30 294 6.4 14.5 0.00 0.00 0.00 31 1003.8
20260903203600 30 355 3.2 12.9 0.00 0.00 0.00 33 1003.6
20260903203132 30 11 6.4 16.1 0.00 0.00 0.00 33 1003.6
20260903202056 29 327 3.2 8.0 0.00 0.00 0.00 32 1003.9
20260903201556 28 309 0.0 6.4 0.00 0.00 0.00 32 1003.9
20260903201055 29 309 1.6 6.4 0.00 0.00 0.00 31 1003.8
20260903200555 29 323 1.6 12.9 0.00 0.00 0.00 31 1003.6
20260903200059 29 313 4.8 12.9 0.00 0.00 0.00 31 1003.9
20260903195554 29 291 4.8 14.5 0.00 0.00 0.00 34 1003.7
20260903195052 29 268 8.0 16.1 0.00 0.00 0.00 32 1003.8
20260903194556 28 248 8.0 16.1 0.00 0.00 0.00 35 1003.8
20260903194049 28 286 3.2 8.0 0.00 0.00 0.00 36 1003.9
20260903193549 28 330 3.2 8.0 0.00 0.00 0.00 41 1003.9
20260903193047 27 211 1.6 12.9 0.00 0.00 0.00 44 1003.7
20260903192049 27 183 3.2 12.9 0.00 0.00 0.00 45 1003.8
20260903191553 27 130 4.8 12.9 0.00 0.00 0.00 48 1003.7
20260903191148 27 127 3.2 12.9 0.00 0.00 0.00 48 1003.6
20260903190550 27 104 1.6 11.3 0.00 0.00 0.00 51 1003.8
20260903190045 26 20 0.0 8.0 0.00 0.00 0.00 52 1003.8
20260903185547 26 5 1.6 8.0 0.00 0.00 0.00 53 1003.8
20260903185043 26 51 4.8 12.9 0.00 0.00 0.00 54 1003.8
20260903184542 26 152 4.8 12.9 0.00 0.00 0.00 55 1003.7
20260903184041 25 39 3.2 8.0 0.00 0.00 0.00 56 1003.6
20260903183539 25 29 1.6 8.0 0.00 0.00 0.00 56 1003.7
20260903183043 25 25 1.6 14.5 0.00 0.00 0.00 58 1003.7
20260903182038 25 196 3.2 6.4 0.00 0.00 0.00 59 1004.2
20260903181535 25 144 0.0 4.8 0.00 0.00 0.00 60 1004.3
20260903181032 23 123 0.0 6.4 0.00 0.00 0.00 61 1004.1
20260903180533 23 117 1.6 9.7 0.00 0.00 0.00 62 1004.1
20260903180029 23 49 3.2 9.7 0.00 0.00 0.00 62 1004.3
20260903175532 22 106 1.6 4.8 0.00 0.00 0.00 64 1004.2
20260903175029 22 106 1.6 4.8 0.00 0.00 0.00 63 1004.2
20260903174529 22 106 0.0 4.8 0.00 0.00 0.00 64 1004.3
20260903174033 22 106 3.2 4.8 0.00 0.00 0.00 64 1004.4
20260903173530 22 110 0.0 4.8 0.00 0.00 0.00 65 1004.4
20260903173029 22 111 1.6 4.8 0.00 0.00 0.00 66 1004.6
20260903172029 22 108 0.0 9.7 0.00 0.00 0.00 66 1004.8
20260903171537 22 105 3.2 12.9 0.00 0.00 0.00 66 1004.8
20260903171031 22 5 4.8 12.9 0.00 0.00 0.00 65 1005.0
20260903170528 22 135 1.6 12.9 0.00 0.00 0.00 67 1005.0
20260903170029 21 136 3.2 12.9 0.00 0.00 0.00 67 1004.9
20260903165528 21 237 0.0 6.4 0.00 0.00 0.00 69 1004.8
20260903165027 21 237 3.2 6.4 0.00 0.00 0.00 68 1004.8
20260903164528 21 202 0.0 6.4 0.00 0.00 0.00 69 1004.9
20260903164028 21 202 0.0 6.4 0.00 0.00 0.00 70 1004.7
20260903163527 21 205 1.6 12.9 0.00 0.00 0.00 70 1004.7
20260903163027 20 240 4.8 14.5 0.00 0.00 0.00 71 1005.1
20260903162032 20 144 9.7 16.1 0.00 0.00 0.00 71 1004.6
20260903161532 20 135 6.4 12.9 0.00 0.00 0.00 71 1004.7
20260903161031 20 150 8.0 17.7 0.00 0.00 0.00 71 1004.7
20260903160532 20 132 8.0 19.3 0.00 0.00 0.00 70 1004.7
20260903160034 20 167 11.3 22.5 0.00 0.00 0.00 70 1005.1
20260903155534 20 194 14.5 22.5 0.00 0.00 0.00 70 1005.2
20260903155031 20 164 6.4 17.7 0.00 0.00 0.00 70 1005.1
20260903154538 20 202 11.3 29.0 0.00 0.00 0.00 70 1005.2
20260903154033 20 205 14.5 29.0 0.00 0.00 0.00 70 1005.5
20260903153529 20 233 16.1 24.1 0.00 0.00 0.00 72 1006.0
20260903153031 20 232 4.8 16.1 0.00 0.00 0.00 72 1005.5
20260903152029 19 236 8.0 12.9 0.00 0.00 0.00 74 1005.5
20260903151525 19 192 4.8 9.7 0.00 0.00 0.00 74 1005.4
20260903151025 19 232 1.6 8.0 0.00 0.00 0.00 74 1005.4
20260903150525 19 234 1.6 11.3 0.00 0.00 0.00 75 1005.5
20260903150027 19 234 6.4 11.3 0.00 0.00 0.00 75 1005.6
20260903145527 19 238 1.6 8.0 0.00 0.00 0.00 75 1005.5
20260903145029 19 239 4.8 8.0 0.00 0.00 0.00 75 1005.7
20260903144540 18 64 1.6 4.8 0.00 0.00 0.00 75 1005.5
20260903144025 18 53 0.0 4.8 0.00 0.00 0.00 76 1005.1
20260903143523 18 39 1.6 4.8 0.00 0.00 0.00 77 1004.7
20260903143038 18 16 0.0 4.8 0.00 0.00 0.00 77 1004.8
20260903142022 18 282 0.0 3.2 0.00 0.00 0.00 78 1005.1
20260903141523 18 282 0.0 3.2 0.00 0.00 0.00 78 1005.1
20260903141027 18 282 0.0 6.4 0.00 0.00 0.00 78 1005.3
20260903140522 17 281 1.6 6.4 0.00 0.00 0.00 78 1005.2
20260903140027 17 281 1.6 4.8 0.00 0.00 0.00 80 1005.2
20260903135520 17 292 1.6 4.8 0.00 0.00 0.00 80 1004.9
20260903135020 17 34 0.0 3.2 0.00 0.00 0.00 81 1004.3
20260903134519 17 38 0.0 1.6 0.00 0.00 0.00 81 1004.2
20260903134019 17 38 0.0 4.8 0.00 0.00 0.00 82 1004.1
20260903133524 17 37 1.6 4.8 0.00 0.00 0.00 82 1003.9
20260903133018 17 17 0.0 6.4 0.00 0.00 0.00 81 1003.9
20260903132618 17 11 3.2 11.3 0.00 0.00 0.00 81 1003.7
20260903132017 17 35 4.8 11.3 0.00 0.00 0.00 81 1003.6
20260903131517 17 51 4.8 11.3 0.00 0.00 0.00 80 1003.7
20260903131019 16 288 0.0 6.4 0.00 0.00 0.00 81 1004.2
20260903130516 16 286 3.2 6.4 0.00 0.00 0.00 81 1004.4
20260903130016 16 36 1.6 4.8 0.00 0.00 0.00 81 1003.8
20260903125516 16 36 0.0 3.2 0.00 0.00 0.00 81 1004.0
20260903125015 16 36 0.0 4.8 0.00 0.00 0.00 81 1004.0
20260903124514 16 36 0.0 4.8 0.00 0.00 0.00 81 1003.8
20260903124014 16 36 0.0 0.0 0.00 0.00 0.00 80 1003.9
20260903123514 16 36 0.0 0.0 0.00 0.00 0.00 81 1003.9
20260903123014 16 36 0.0 0.0 0.00 0.00 0.00 81 1003.7
20260903122017 16 36 0.0 0.0 0.00 0.00 0.00 80 1003.9
20260903121528 16 36 0.0 0.0 0.00 0.00 0.00 80 1003.8
20260903121015 16 36 0.0 0.0 0.00 0.00 0.00 80 1003.7
20260903120515 16 36 0.0 0.0 0.00 0.00 0.00 79 1003.8
20260903120030 16 36 0.0 4.8 0.00 0.00 0.00 79 1003.9
20260903115513 16 36 1.6 4.8 0.00 0.00 0.00 78 1003.7
20260903115016 17 36 0.0 4.8 0.00 0.00 0.00 78 1003.7
20260903114511 17 37 1.6 6.4 0.00 0.00 0.00 77 1003.7
20260903114010 17 37 1.6 6.4 0.00 0.00 0.00 77 1003.7
20260903113510 17 20 1.6 11.3 0.00 0.00 0.00 77 1003.6
20260903113018 17 32 3.2 8.0 0.00 0.00 0.00 77 1003.4
20260903112014 17 31 3.2 8.0 0.00 0.00 0.00 75 1003.6
20260903111511 17 16 1.6 6.4 0.00 0.00 0.00 74 1003.5
20260903111012 18 16 3.2 8.0 0.00 0.00 0.00 74 1003.5
20260903110510 18 15 3.2 9.7 0.00 0.00 0.00 74 1003.5
20260903110010 18 46 4.8 9.7 0.00 0.00 0.00 74 1003.6
20260903105507 18 9 4.8 14.5 0.00 0.00 0.00 73 1003.4
20260903105007 18 44 6.4 14.5 0.00 0.00 0.00 73 1003.3
20260903104507 18 42 4.8 14.5 0.00 0.00 0.00 73 1003.2
20260903104006 18 38 8.0 17.7 0.00 0.00 0.00 73 1003.2
20260903103507 17 48 8.0 14.5 0.00 0.00 0.00 73 1003.1
20260903103006 17 51 8.0 14.5 0.00 0.00 0.00 73 1003.1